Terug naar catalogus

STARLINK-36102

ActiefCommunicatieVLEO
NORAD 66849·PAYLOAD·🇺🇸 United States

Gelanceerd Dec 2, 2025 vanaf Cape Canaveral Space Force Station

Loading…

Volgende Passages (komende 24 uur)

TLE

VersSource: CelesTrak SupGP

Epoch: Sep 15, 2026, 04:08 UTC

1 66849C 25281B   26258.17270833  .00054018  00000+0  19560-2 0  2583
2 66849  43.0033 353.5791 0001507 266.0567  40.8113 15.27560422    18

Volg STARLINK-36102 in realtime met AllMySat

Download on the App Store